Theta_e
321 322 321 319 316 315 315 316 317 317 318 317 319 320 320 316 315 315 314 313 312 319 323 324 323 321 320 318 316 317 318 318 314 315 314 318 319 319 319 317 319 316 318 318 319 324 324 323 325 327 323 328 332 331
320 320 316 314 313 314 314 316 318 319 317 318 319 321 320 316 316 316 314 313 314 317 320 322 322 322 322 320 318 318 318 319 318 314 313 315 320 316 315 319 316 318 315 317 317 319 318 322 323 325 327 330 333 330
312 311 309 310 313 316 317 318 319 317 317 318 320 320 317 315 316 316 315 311 313 311 318 320 316 318 320 320 318 319 320 322 321 320 315 312 317 313 317 316 318 317 317 319 321 318 322 323 324 326 330 332 332 329
307 307 309 313 316 317 318 319 318 318 318 319 318 316 316 315 316 316 315 314 309 314 320 323 320 320 321 321 319 318 319 319 319 320 316 310 312 315 314 314 316 317 318 317 318 319 322 323 323 329 329 328 327 329
305 311 314 315 315 316 316 318 318 318 318 319 316 315 315 315 316 316 315 314 309 316 318 322 320 320 321 321 320 319 320 319 320 318 312 312 312 314 312 312 314 319 318 320 319 320 321 322 324 328 326 324 326 324
310 314 314 314 314 315 316 317 318 318 317 316 315 315 315 316 316 315 314 315 311 309 316 318 321 323 322 319 320 321 321 321 321 320 317 317 320 318 315 315 317 319 321 322 321 322 322 323 328 327 322 322 321 320
313 314 314 313 313 314 315 315 315 316 315 315 315 315 315 315 315 314 311 313 311 308 316 321 320 323 325 320 321 321 322 322 322 320 316 316 319 319 312 316 320 321 323 323 323 323 324 327 327 325 319 320 320 320
314 313 312 314 311 311 311 312 313 314 315 314 314 314 315 315 315 315 314 311 310 313 319 317 316 319 321 321 322 322 322 322 321 321 317 318 318 314 311 315 319 318 323 321 320 322 323 326 327 325 320 319 319 318
313 313 313 313 312 311 310 310 314 314 314 313 312 313 314 313 312 311 311 316 314 314 318 315 316 319 320 320 321 321 321 317 319 317 315 317 310 314 317 321 321 320 320 321 320 322 324 326 326 325 322 320 319 317
313 311 313 313 312 311 311 309 312 314 313 312 313 310 309 310 312 314 311 311 311 312 316 318 321 315 321 320 319 321 320 317 319 316 317 314 314 320 322 322 321 320 319 320 323 322 325 327 326 325 323 319 321 321
311 311 312 313 313 312 311 310 310 313 313 313 308 311 317 319 317 318 317 316 316 316 315 316 317 319 320 320 318 320 318 316 320 317 319 316 316 318 321 321 321 320 319 321 324 323 324 323 324 324 324 321 321 321
310 311 311 312 312 312 312 311 311 314 312 310 313 315 318 319 319 319 317 315 314 314 314 316 318 317 320 324 322 321 319 315 320 315 317 317 315 322 321 321 322 321 319 321 323 324 324 323 323 322 322 321 321 320
310 310 310 311 311 312 311 310 312 314 312 311 314 316 319 317 314 318 319 318 316 317 315 313 312 318 319 323 321 318 321 319 316 319 320 317 320 321 321 322 321 320 319 322 322 323 324 321 321 322 323 321 322 321
311 310 310 310 311 312 310 311 313 314 311 311 315 315 315 316 316 316 317 316 318 317 317 313 312 316 319 319 317 323 319 316 318 318 318 315 321 322 321 321 321 318 319 321 322 322 321 321 320 320 321 321 320 318
312 310 310 311 312 312 310 312 313 313 310 311 316 314 315 316 317 319 319 319 319 319 319 318 316 319 315 318 316 317 320 321 318 318 315 319 320 320 321 320 321 319 318 321 322 321 321 321 321 320 319 318 317 317
311 310 310 311 312 311 311 312 312 311 310 313 315 316 316 316 318 317 319 319 320 321 319 320 320 320 320 316 319 320 320 320 318 314 320 320 321 321 321 321 320 319 318 320 321 321 320 320 320 320 319 319 317 316
309 309 309 311 311 311 311 310 310 310 310 312 315 315 315 316 316 317 317 318 318 321 320 321 323 323 320 321 321 317 318 316 317 320 319 319 320 320 322 321 319 318 317 318 319 320 320 320 320 320 319 318 317 316
309 309 309 310 310 310 310 309 309 311 312 312 313 313 315 316 316 318 317 317 318 319 321 321 322 322 323 324 321 317 322 325 325 324 323 322 321 321 322 320 318 317 317 317 317 319 320 321 320 319 318 317 316 316
308 308 309 309 310 310 310 309 309 312 312 312 312 312 312 312 313 315 317 317 318 317 322 321 320 321 321 321 321 322 324 325 326 327 325 323 322 322 322 319 318 317 318 317 318 318 318 318 318 318 318 317 317 316
308 308 309 309 310 310 312 311 309 310 311 313 314 314 313 314 314 314 315 314 315 319 320 320 318 319 321 319 320 322 324 323 325 325 325 325 324 323 322 320 319 318 318 318 318 318 318 319 319 318 318 318 317 317
308 308 309 309 310 310 311 311 312 311 312 313 314 314 314 314 314 314 315 315 318 320 316 319 319 318 319 318 320 322 323 322 324 324 323 323 323 324 324 323 322 320 321 323 322 322 324 324 324 322 323 323 322 320
307 308 309 309 310 311 311 311 311 312 312 313 313 313 315 315 316 315 315 315 317 316 317 318 317 317 317 317 318 320 321 321 323 323 323 321 322 323 323 324 322 322 322 322 323 323 323 322 323 324 325 324 324 324
309 309 309 310 310 311 311 311 313 313 313 314 315 317 315 316 317 316 316 317 318 318 318 317 317 316 316 318 320 319 319 320 322 322 323 323 322 322 322 321 320 320 322 322 325 325 325 323 322 321 324 324 324 324
308 310 310 311 310 310 311 312 313 313 314 312 314 316 316 317 318 317 317 317 319 319 318 317 317 317 318 319 320 320 320 321 322 322 323 321 322 322 321 320 320 322 323 322 323 323 322 322 322 322 322 323 323 321
308 308 309 308 311 311 312 313 315 314 316 314 316 315 315 319 318 318 319 319 320 318 318 319 320 321 321 321 322 321 321 321 321 322 321 321 321 322 322 323 323 322 323 323 323 322 322 322 321 320 321 323 321 319
308 309 307 311 312 312 312 315 316 318 319 320 320 319 319 316 319 319 316 321 320 321 321 321 321 322 321 322 324 323 322 321 322 322 322 322 323 323 323 322 322 323 324 324 323 323 322 321 322 320 320 321 320 318
307 309 309 309 311 313 314 314 314 315 319 320 319 319 319 320 320 319 321 321 319 319 321 321 321 322 322 324 323 324 323 323 323 322 322 321 322 321 319 317 317 319 321 322 322 322 321 319 318 318 318 320 319 318
306 309 310 312 311 311 313 314 317 319 320 318 317 321 323 323 321 321 321 320 319 320 320 321 321 320 321 321 322 322 323 321 317 315 315 314 313 314 315 314 312 312 312 316 318 318 317 316 316 317 317 318 317 314
309 311 311 312 314 314 314 314 316 318 320 319 321 319 320 321 319 320 321 321 321 321 321 321 321 319 319 318 318 316 316 315 316 316 316 316 316 316 316 315 313 312 310 312 314 315 315 316 317 317 315 315 314 314
310 310 313 316 316 315 317 317 318 317 318 320 321 321 319 319 319 320 320 321 319 318 318 321 321 320 319 319 318 317 316 317 318 318 318 318 319 318 317 316 315 314 310 310 313 314 315 316 316 313 312 312 313 313
311 312 313 313 312 315 315 315 315 315 317 319 320 321 319 319 320 321 321 320 320 317 316 316 316 317 318 319 320 320 320 319 318 318 318 319 318 315 313 313 315 315 312 309 311 314 316 316 314 313 312 311 310 310
311 310 311 311 312 315 315 316 317 318 319 320 321 321 319 318 319 317 317 316 318 317 317 316 316 317 317 318 318 318 318 318 318 318 319 318 315 314 313 312 312 313 314 311 310 314 316 315 314 313 310 311 311 311
312 313 313 313 314 314 316 317 318 318 320 321 321 321 320 319 318 318 315 316 315 314 315 315 315 316 315 316 316 316 316 316 315 315 315 315 315 315 315 314 313 313 314 314 311 311 314 315 314 312 311 309 310 310
Wind_Speed
25 25 25 24 25 25 24 22 21 21 19 17 16 14 14 13 11 9 8 8 12 6 17 11 5 0 2 2 3 4 3 1 3 3 3 4 3 4 1 4 4 5 4 3 2 1 5 4 6 5 3 6 20 14
24 24 24 24 24 24 22 21 19 16 15 14 15 14 14 12 12 9 8 9 10 12 10 11 15 15 16 13 7 5 2 4 5 4 1 3 2 2 4 3 1 2 5 4 7 5 3 3 4 3 3 6 8 11
20 21 23 23 23 21 18 16 14 12 12 14 14 13 13 13 13 12 11 11 12 12 21 22 20 10 13 14 11 5 4 5 5 4 8 3 2 4 4 5 3 3 5 2 2 3 6 6 5 5 6 9 8 6
20 21 21 21 20 17 15 12 10 12 13 14 14 14 14 15 14 15 13 13 12 6 4 7 6 11 12 15 16 13 8 10 7 7 4 3 3 9 4 2 3 4 8 4 4 7 5 9 8 7 8 7 6 7
18 18 16 14 13 12 12 10 11 13 14 15 13 15 15 15 14 15 14 14 13 8 4 9 15 12 10 16 17 13 9 10 8 4 3 3 4 4 1 2 2 8 6 5 6 7 7 9 12 14 14 10 8 7
16 13 12 11 12 11 11 12 12 12 13 13 13 15 14 12 8 6 3 13 17 15 5 3 5 6 12 16 17 13 11 8 5 3 4 5 4 5 3 3 6 15 15 15 2 3 6 8 15 15 12 12 11 8
13 11 10 11 10 11 11 11 11 11 12 12 14 14 13 9 9 9 3 4 18 17 4 5 6 3 11 19 17 13 12 6 5 4 4 3 5 7 3 4 10 13 17 15 13 6 7 18 19 16 11 14 12 9
13 12 10 10 10 10 9 9 10 10 10 13 12 13 10 7 8 11 5 2 19 11 4 2 4 3 10 8 9 9 7 7 4 4 3 4 5 2 2 13 12 8 15 14 12 15 13 18 20 18 16 17 15 13
13 13 11 10 10 9 9 9 7 8 10 12 13 5 3 4 4 2 9 12 10 5 4 3 2 3 7 4 5 5 5 1 2 3 4 5 1 4 8 12 13 13 16 16 13 16 14 20 23 22 19 18 16 14
13 13 12 11 9 9 9 9 9 8 10 11 4 2 3 4 5 10 8 9 10 7 6 5 3 3 4 3 3 5 2 2 1 3 3 2 4 20 25 23 18 13 15 12 18 17 18 23 25 24 22 16 17 15
12 11 11 10 9 9 9 9 10 9 7 3 3 3 1 4 7 4 4 4 6 3 7 10 15 3 3 3 3 2 3 2 1 4 3 2 4 7 8 10 18 15 15 17 16 20 21 20 25 25 24 19 17 16
12 10 8 8 8 9 10 10 10 7 4 4 4 6 5 5 4 3 3 1 4 5 5 7 10 16 4 5 4 4 3 1 4 4 2 3 4 7 4 4 10 18 18 20 17 19 20 19 22 23 23 21 17 14
13 11 10 8 9 8 8 9 8 7 8 5 3 3 3 4 1 5 6 3 3 4 6 7 3 7 9 5 4 3 3 5 6 2 4 5 8 9 6 7 12 19 17 19 19 17 18 15 17 21 24 19 20 19
13 12 10 8 8 7 7 9 6 6 7 4 4 3 4 3 4 4 4 3 5 4 4 10 7 5 4 4 3 4 4 3 2 2 5 4 12 4 6 5 17 21 21 21 23 20 18 21 18 18 22 20 18 17
12 11 9 7 7 8 8 8 6 8 6 4 3 4 5 7 5 6 9 7 8 8 8 3 3 4 1 4 3 3 3 5 5 5 4 10 7 10 11 11 17 19 20 21 23 23 19 18 21 22 20 17 14 13
12 11 7 6 6 6 6 5 5 9 3 3 5 3 5 1 4 3 2 3 8 6 6 4 3 3 4 3 4 7 6 6 4 4 10 6 3 6 13 15 15 15 18 19 20 21 16 18 20 17 15 15 16 16
8 6 5 5 5 5 4 3 3 5 5 4 6 8 13 11 11 6 8 6 14 3 3 3 5 5 3 2 3 4 5 3 7 14 15 15 13 15 11 18 14 15 16 15 17 18 16 18 19 19 21 20 19 20
10 7 6 7 5 5 4 6 3 4 6 9 7 7 7 8 4 12 8 9 9 13 1 2 4 3 4 4 3 4 5 11 16 20 22 20 20 14 16 19 16 15 15 13 13 15 16 20 22 22 22 20 18 18
11 9 8 7 8 4 3 4 5 4 10 7 14 19 16 12 15 15 16 13 10 17 6 2 2 3 4 7 10 9 2 5 10 15 18 22 21 15 21 19 16 15 16 15 16 17 17 18 21 23 24 25 26 25
10 10 7 10 9 3 3 4 5 5 5 4 9 11 11 14 19 20 21 19 18 11 6 3 4 6 7 10 14 9 3 6 8 7 6 4 2 13 18 14 11 9 9 12 16 18 21 23 25 26 28 30 33 34
8 10 7 8 7 8 3 3 5 5 5 6 8 7 7 11 14 17 20 22 17 7 6 14 15 17 15 15 14 13 8 3 3 3 8 8 6 6 7 5 5 9 13 18 21 21 21 24 25 29 33 33 33 34
6 6 6 8 4 5 6 7 5 5 5 7 7 8 7 5 6 7 12 15 7 18 22 23 25 26 24 20 18 20 23 14 13 8 8 9 10 6 4 6 12 10 12 14 17 22 24 26 22 21 20 23 24 24
6 7 3 4 4 4 4 5 5 4 3 4 3 3 3 4 5 8 5 7 12 23 27 28 29 29 26 22 16 14 17 21 23 17 16 16 17 19 20 14 11 12 15 15 14 14 14 16 17 18 18 16 16 18
5 4 3 4 6 4 3 4 5 4 4 3 2 4 3 4 5 4 3 6 15 13 17 22 21 25 25 20 16 19 21 19 24 23 21 19 22 19 17 16 15 16 14 15 14 14 15 16 15 15 15 15 13 14
3 4 3 4 5 3 3 3 3 3 4 4 2 3 2 2 1 2 3 4 7 14 15 14 16 16 15 16 18 21 17 16 16 20 20 18 18 19 16 16 16 16 17 18 17 17 16 14 12 13 15 16 16 17
2 5 6 4 4 4 3 3 3 3 3 3 4 3 2 0 1 4 3 2 2 1 4 9 11 11 11 11 10 10 12 11 11 13 14 13 11 11 12 12 12 12 12 12 13 13 13 12 13 15 15 15 16 18
3 4 7 7 5 4 5 7 9 5 4 2 2 2 1 2 3 2 1 3 2 2 2 3 1 3 4 4 4 5 5 5 4 4 3 4 4 4 6 8 10 11 11 10 9 10 11 12 14 14 14 15 16 19
6 4 4 3 5 6 2 3 4 5 3 2 2 3 3 2 1 1 2 1 2 4 5 6 5 4 5 7 6 5 6 6 7 7 3 3 3 3 4 7 8 8 8 9 10 11 12 12 13 13 14 16 18 20
5 5 4 5 7 6 7 6 4 1 6 8 2 2 2 1 2 3 4 4 4 2 2 3 5 8 10 9 9 8 8 11 9 5 1 2 5 5 7 7 9 10 9 8 9 10 10 10 11 10 10 12 23 24
6 9 4 4 4 5 8 11 10 6 10 9 5 4 1 2 2 5 4 4 5 6 7 6 8 6 5 5 6 7 9 9 8 6 4 6 7 10 11 10 9 11 10 8 6 6 8 11 12 12 12 13 21 21
5 9 6 7 5 8 11 10 10 10 12 8 5 2 2 3 5 3 6 4 4 5 4 4 6 5 5 6 7 8 9 10 13 14 13 9 9 7 5 6 8 9 9 9 5 5 9 11 14 14 13 16 16 15
6 10 4 2 4 4 5 1 3 4 5 3 1 2 2 2 3 3 3 3 5 6 7 8 6 5 3 1 3 4 6 8 10 9 8 8 7 7 6 6 6 8 9 7 4 3 10 13 14 16 23 19 16 14
4 4 4 3 3 4 5 5 1 2 2 2 3 2 3 2 3 4 8 9 11 9 9 9 8 7 5 3 2 3 4 5 5 6 7 10 12 13 12 10 9 8 9 9 6 5 10 15 15 17 25 26 21 19
Wind_Direction
286 286 290 293 296 295 295 296 295 294 290 296 296 299 305 306 301 283 251 250 213 250 267 268 265 274 17 190 151 163 79 4 61 83 136 202 165 217 147 226 196 174 147 198 115 209 277 137 132 183 280 354 149 160
283 286 290 293 294 294 291 290 292 295 292 292 295 298 298 297 295 281 247 233 226 242 265 268 263 259 262 265 259 177 171 164 164 93 154 121 159 139 167 248 53 263 184 185 176 218 242 260 263 264 219 176 142 145
288 289 290 292 292 291 287 287 289 297 292 293 292 294 292 290 288 274 239 223 241 273 283 272 262 260 237 223 212 209 199 189 188 192 155 155 188 130 166 239 198 224 177 195 56 254 225 233 216 254 177 158 157 161
290 290 292 292 292 287 284 276 290 292 291 291 295 293 291 291 282 268 245 225 224 259 274 281 253 231 227 222 217 227 235 192 192 187 147 143 177 195 199 198 180 188 151 178 262 272 270 231 204 183 141 161 169 152
287 288 293 299 304 300 291 271 288 286 289 291 294 297 299 298 281 257 246 220 215 219 279 290 307 234 232 215 205 206 197 201 190 152 118 222 176 142 100 98 247 190 184 166 221 216 193 206 192 173 158 164 175 175
282 286 292 297 296 296 287 281 283 288 290 291 297 300 302 299 264 243 261 223 214 214 264 312 290 247 194 187 189 186 186 188 183 188 204 217 202 178 140 192 249 215 220 220 205 348 192 166 165 158 156 156 159 170
277 275 277 285 291 294 292 289 287 288 292 297 303 297 301 273 228 201 222 253 197 188 237 287 288 215 191 187 181 182 188 183 182 180 212 209 187 186 134 191 245 238 226 232 229 188 154 174 173 163 156 146 159 160
273 268 269 279 291 301 304 302 300 299 305 309 298 295 286 242 232 234 222 220 172 179 238 240 269 309 176 169 175 185 190 197 195 210 202 188 153 153 252 237 241 245 216 218 228 211 225 177 171 166 165 160 162 166
271 267 268 272 282 293 304 315 314 311 313 315 303 280 223 214 210 200 188 183 174 220 279 210 220 245 174 148 150 162 180 119 222 208 239 146 40 218 226 233 237 223 216 223 224 194 184 176 176 176 178 174 171 173
266 263 259 262 273 286 294 307 311 305 314 308 262 205 219 172 166 135 145 171 196 218 231 240 233 268 182 147 128 137 127 163 186 251 136 147 246 248 249 246 238 225 218 207 171 165 171 178 180 184 189 184 189 188
265 261 257 258 268 281 288 295 306 303 308 236 220 239 178 174 165 194 191 176 190 241 217 224 227 216 199 142 178 168 162 125 153 265 141 294 285 249 282 251 230 217 207 210 208 198 193 196 196 198 195 194 194 201
259 259 267 257 267 276 283 287 300 281 225 217 270 282 158 186 195 189 195 243 191 220 214 191 215 208 204 188 124 172 136 76 232 151 96 269 254 296 265 218 199 198 203 205 204 205 204 210 212 211 206 202 201 206
252 261 266 265 269 269 281 292 286 250 217 247 255 222 196 176 91 194 196 228 220 219 201 179 180 172 180 183 86 110 145 221 136 116 225 230 256 269 262 243 200 188 196 199 203 207 210 219 218 222 217 215 218 223
249 255 267 272 257 259 276 299 260 233 190 240 228 231 188 201 235 202 206 200 231 228 172 191 153 156 160 130 152 138 221 118 187 196 238 245 245 266 217 212 189 192 193 200 209 209 211 210 210 207 212 222 220 215
247 251 259 264 254 261 271 287 251 211 208 241 230 237 218 229 254 258 278 264 266 271 239 131 106 158 162 130 198 116 139 228 198 219 229 274 288 231 210 204 199 203 204 203 203 206 208 216 216 216 209 211 219 223
238 242 265 253 252 252 255 268 239 193 220 248 243 275 248 319 277 296 256 318 356 306 217 199 140 151 202 160 149 205 162 201 235 218 250 283 302 284 233 214 208 206 208 209 209 212 225 228 218 214 223 228 231 228
215 228 242 229 229 234 248 198 185 192 212 246 245 248 263 279 269 302 326 333 348 275 215 166 166 193 127 125 227 177 189 224 312 301 298 299 305 323 225 199 205 203 206 213 220 220 230 219 216 223 229 229 234 233
213 233 224 217 232 240 219 202 228 233 234 239 253 245 231 234 247 278 293 344 331 340 312 237 140 145 183 173 235 218 249 316 301 292 288 287 296 300 204 192 200 205 206 214 220 226 228 226 230 235 237 240 241 238
216 221 219 218 220 194 217 215 217 257 237 250 248 255 260 253 244 237 255 277 283 302 284 224 166 188 215 208 219 215 206 335 321 308 274 274 272 261 194 191 202 207 211 218 225 231 236 239 243 246 248 249 247 247
225 200 210 215 207 212 229 216 215 249 254 240 242 251 242 245 252 249 251 238 250 234 225 215 214 219 219 282 264 225 165 29 15 20 41 42 258 199 193 200 205 216 228 237 242 246 250 252 252 252 253 254 254 255
213 210 225 210 214 223 276 260 240 241 270 253 274 243 250 251 249 237 225 219 215 218 220 226 242 257 272 285 290 229 218 326 168 96 14 8 17 115 131 167 213 229 240 253 262 263 263 268 273 273 266 262 265 265
182 190 196 194 208 218 242 234 244 284 265 265 272 253 246 232 226 216 195 200 226 230 230 232 236 251 259 270 270 254 253 247 220 238 262 278 280 282 256 261 281 285 271 267 266 266 269 268 273 275 270 265 261 261
171 181 178 187 233 228 260 226 239 238 239 256 265 239 230 232 220 176 207 221 235 240 244 244 243 244 256 272 265 248 247 244 232 232 250 271 286 276 253 261 283 295 290 278 268 262 263 268 267 269 271 266 256 252
186 192 200 214 211 266 251 235 226 244 256 260 252 270 250 229 178 203 240 232 237 250 241 239 240 242 249 258 258 258 244 232 228 231 235 259 264 257 265 278 284 282 275 273 277 262 270 273 264 265 260 259 249 234
178 211 214 270 206 238 242 244 223 214 241 218 229 267 263 284 209 239 233 268 257 239 237 232 232 240 253 270 264 264 244 226 228 237 249 251 272 273 277 282 283 282 281 279 275 271 272 247 253 260 256 250 235 221
242 210 190 228 219 202 236 263 219 248 253 236 232 319 313 79 244 247 240 314 312 10 247 240 243 248 261 265 265 231 201 191 204 219 250 274 284 288 292 301 301 300 296 279 265 254 242 250 263 261 253 235 222 213
252 241 224 232 253 290 265 264 262 249 252 253 326 288 289 251 243 259 141 29 51 187 166 173 136 118 105 118 156 170 171 173 180 198 243 254 255 274 295 302 301 294 288 271 256 252 260 267 266 257 241 225 212 208
246 269 207 223 222 235 276 282 267 211 191 175 240 231 226 228 245 179 153 169 81 68 138 131 87 104 132 119 124 159 173 172 153 138 124 109 118 44 8 349 335 325 300 278 269 264 268 266 256 238 221 209 198 184
245 246 252 242 232 218 221 223 258 207 179 184 240 278 334 63 100 114 131 108 75 58 196 180 151 139 135 136 126 130 139 141 144 136 122 298 308 317 308 327 342 344 333 304 279 261 256 239 222 212 208 199 185 187
243 232 235 232 207 221 236 208 187 263 281 244 300 321 15 75 172 145 112 85 68 66 73 121 176 189 190 187 176 174 185 199 215 228 257 296 322 318 315 307 319 337 339 330 288 258 215 185 183 186 181 186 196 216
228 187 225 237 256 246 255 272 266 223 241 252 240 299 49 86 103 96 140 153 93 91 104 141 175 186 221 238 246 253 259 261 264 264 263 286 307 295 315 316 307 324 341 346 320 233 205 196 183 184 187 175 178 183
213 208 230 255 268 298 323 351 146 176 179 175 160 86 67 97 84 109 82 119 139 124 99 84 95 101 103 29 332 308 311 312 302 308 291 266 280 271 278 301 315 313 320 334 351 200 196 196 193 192 179 176 182 178
221 224 255 273 294 326 360 353 106 78 65 68 39 79 86 93 99 74 36 116 132 119 110 116 112 111 116 111 79 27 352 331 316 290 277 280 284 283 271 270 278 303 298 286 277 242 213 212 211 204 199 202 201 201